Wetterdaten: Dienstag, 02.12.2014
Datum Zeit Temp. A. Feuchte A. Luftdruck Regen Wind Richtung Richtung Sonnenschein ET UV Solar Taupunkt Windchill Windben Empfang
02.12.2014 00:00 1,2 C 77 % 1007,5 hPa 0,0 l/m 10,4 km/h (2 Bft) O-SO 121 0 min 0,000 mm 0,0 UV-I 0 W/m -2,4 C -2,4 C 15,8 km/h (3 Bft) 0,00 %
02.12.2014 00:15 1,1 C 78 % 1007,3 hPa 0,0 l/m 8,3 km/h (2 Bft) O 93 0 min 0,000 mm 0,0 UV-I 0 W/m -2,3 C -0,8 C 11,9 km/h (2 Bft) 0,00 %
02.12.2014 00:30 1,1 C 78 % 1007,8 hPa 0,0 l/m 6,5 km/h (2 Bft) NO 52 0 min 0,000 mm 0,0 UV-I 0 W/m -2,3 C 1,0 C 11,9 km/h (2 Bft) 0,00 %
02.12.2014 00:45 1,0 C 79 % 1007,8 hPa 0,0 l/m 4,0 km/h (1 Bft) SW 229 0 min 0,000 mm 0,0 UV-I 0 W/m -2,2 C 1,0 C 7,9 km/h (2 Bft) 0,00 %
02.12.2014 01:00 1,0 C 79 % 1007,6 hPa 0,0 l/m 8,3 km/h (2 Bft) O-SO 110 0 min 0,000 mm 0,0 UV-I 0 W/m -2,2 C -0,9 C 11,9 km/h (2 Bft) 0,00 %
02.12.2014 01:15 1,0 C 79 % 1007,7 hPa 0,0 l/m 4,7 km/h (1 Bft) S 172 0 min 0,000 mm 0,0 UV-I 0 W/m -2,2 C 1,0 C 7,9 km/h (2 Bft) 0,00 %
02.12.2014 01:30 1,0 C 79 % 1007,8 hPa 0,0 l/m 4,0 km/h (1 Bft) S 174 0 min 0,000 mm 0,0 UV-I 0 W/m -2,2 C 1,0 C 4,0 km/h (1 Bft) 0,00 %
02.12.2014 01:45 1,0 C 79 % 1007,8 hPa 0,0 l/m 11,5 km/h (2 Bft) O-SO 111 0 min 0,000 mm 0,0 UV-I 0 W/m -2,2 C -3,5 C 15,8 km/h (3 Bft) 0,00 %
02.12.2014 02:00 0,9 C 79 % 1007,7 hPa 0,0 l/m 4,7 km/h (1 Bft) SO 144 0 min 0,000 mm 0,0 UV-I 0 W/m -2,3 C 0,9 C 7,9 km/h (2 Bft) 0,00 %
02.12.2014 02:15 0,9 C 79 % 1008,1 hPa 0,0 l/m 0,4 km/h (0 Bft) SO 124 0 min 0,000 mm 0,0 UV-I 0 W/m -2,3 C 0,9 C 4,0 km/h (1 Bft) 0,00 %
02.12.2014 02:30 1,0 C 79 % 1007,9 hPa 0,0 l/m 4,3 km/h (1 Bft) NO 49 0 min 0,000 mm 0,0 UV-I 0 W/m -2,2 C 1,0 C 7,9 km/h (2 Bft) 0,00 %
02.12.2014 02:45 0,9 C 79 % 1008,0 hPa 0,0 l/m 13,0 km/h (3 Bft) SO 141 0 min 0,000 mm 0,0 UV-I 0 W/m -2,3 C -4,6 C 19,8 km/h (3 Bft) 0,00 %
02.12.2014 03:00 0,9 C 79 % 1007,9 hPa 0,0 l/m 9,7 km/h (2 Bft) O 98 0 min 0,000 mm 0,0 UV-I 0 W/m -2,3 C -2,2 C 15,8 km/h (3 Bft) 0,00 %
02.12.2014 03:15 0,9 C 79 % 1007,8 hPa 0,0 l/m 7,9 km/h (2 Bft) O-NO 67 0 min 0,000 mm 0,0 UV-I 0 W/m -2,3 C -0,6 C 19,8 km/h (3 Bft) 0,00 %
02.12.2014 03:30 0,8 C 79 % 1007,8 hPa 0,0 l/m 0,0 km/h (0 Bft) S 188 0 min 0,000 mm 0,0 UV-I 0 W/m -2,4 C 0,8 C 0,0 km/h (0 Bft) 0,00 %
02.12.2014 03:45 0,8 C 79 % 1007,8 hPa 0,0 l/m 6,5 km/h (2 Bft) O-NO 64 0 min 0,000 mm 0,0 UV-I 0 W/m -2,4 C 0,7 C 11,9 km/h (2 Bft) 0,00 %
02.12.2014 04:00 0,7 C 79 % 1007,7 hPa 0,0 l/m 7,9 km/h (2 Bft) O-SO 110 0 min 0,000 mm 0,0 UV-I 0 W/m -2,5 C -0,8 C 11,9 km/h (2 Bft) 0,00 %
02.12.2014 04:15 0,7 C 79 % 1007,8 hPa 0,0 l/m 9,0 km/h (2 Bft) O 94 0 min 0,000 mm 0,0 UV-I 0 W/m -2,5 C -1,8 C 11,9 km/h (2 Bft) 0,00 %
02.12.2014 04:30 0,7 C 79 % 1007,9 hPa 0,0 l/m 7,9 km/h (2 Bft) O 86 0 min 0,000 mm 0,0 UV-I 0 W/m -2,5 C -0,8 C 11,9 km/h (2 Bft) 0,00 %
02.12.2014 04:45 0,7 C 79 % 1007,9 hPa 0,0 l/m 7,9 km/h (2 Bft) O 98 0 min 0,000 mm 0,0 UV-I 0 W/m -2,5 C -0,8 C 15,8 km/h (3 Bft) 0,00 %
02.12.2014 05:00 0,7 C 79 % 1008,0 hPa 0,0 l/m 5,8 km/h (2 Bft) N-NO 31 0 min 0,000 mm 0,0 UV-I 0 W/m -2,5 C 0,7 C 7,9 km/h (2 Bft) 0,00 %
02.12.2014 05:15 0,7 C 79 % 1008,0 hPa 0,0 l/m 2,2 km/h (1 Bft) S-SW 209 0 min 0,000 mm 0,0 UV-I 0 W/m -2,5 C 0,7 C 7,9 km/h (2 Bft) 0,00 %
02.12.2014 05:30 0,7 C 79 % 1008,1 hPa 0,0 l/m 16,9 km/h (3 Bft) O-SO 102 0 min 0,000 mm 0,0 UV-I 0 W/m -2,5 C -7,2 C 19,8 km/h (3 Bft) 0,00 %
02.12.2014 05:45 0,6 C 79 % 1008,3 hPa 0,0 l/m 14,8 km/h (3 Bft) O-SO 109 0 min 0,000 mm 0,0 UV-I 0 W/m -2,6 C -6,1 C 19,8 km/h (3 Bft) 0,00 %
02.12.2014 06:00 0,6 C 79 % 1008,3 hPa 0,0 l/m 2,2 km/h (1 Bft) N-NO 26 0 min 0,000 mm 0,0 UV-I 0 W/m -2,6 C 0,6 C 7,9 km/h (2 Bft) 0,00 %
02.12.2014 06:15 0,6 C 80 % 1008,5 hPa 0,0 l/m 14,8 km/h (3 Bft) O-SO 123 0 min 0,000 mm 0,0 UV-I 0 W/m -2,4 C -6,1 C 19,8 km/h (3 Bft) 0,00 %
02.12.2014 06:30 0,6 C 80 % 1008,4 hPa 0,0 l/m 18,0 km/h (3 Bft) O 98 0 min 0,000 mm 0,0 UV-I 0 W/m -2,4 C -7,9 C 24,1 km/h (4 Bft) 0,00 %
02.12.2014 06:45 0,5 C 80 % 1008,4 hPa 0,0 l/m 12,2 km/h (2 Bft) O 98 0 min 0,000 mm 0,0 UV-I 0 W/m -2,5 C -4,6 C 15,8 km/h (3 Bft) 0,00 %
02.12.2014 07:00 0,5 C 80 % 1008,5 hPa 0,0 l/m 2,9 km/h (1 Bft) O-SO 123 0 min 0,000 mm 0,0 UV-I 0 W/m -2,5 C 0,5 C 7,9 km/h (2 Bft) 0,00 %
02.12.2014 07:15 0,5 C 80 % 1008,7 hPa 0,0 l/m 0,0 km/h (0 Bft) SO 124 0 min 0,000 mm 0,0 UV-I 0 W/m -2,5 C 0,5 C 0,0 km/h (0 Bft) 0,00 %
02.12.2014 07:30 0,5 C 80 % 1008,7 hPa 0,0 l/m 0,0 km/h (0 Bft) SO 125 0 min 0,000 mm 0,0 UV-I 0 W/m -2,5 C 0,5 C 0,0 km/h (0 Bft) 0,00 %
02.12.2014 07:45 0,5 C 80 % 1009,0 hPa 0,0 l/m 0,0 km/h (0 Bft) SO 126 0 min 0,000 mm 0,0 UV-I 0 W/m -2,5 C 0,5 C 0,0 km/h (0 Bft) 0,00 %
02.12.2014 08:00 0,5 C 80 % 1009,0 hPa 0,0 l/m 0,0 km/h (0 Bft) SO 127 0 min 0,000 mm 0,0 UV-I 0 W/m -2,5 C 0,5 C 0,0 km/h (0 Bft) 0,00 %
02.12.2014 08:15 0,5 C 80 % 1009,0 hPa 0,0 l/m 0,0 km/h (0 Bft) SO 128 0 min 0,000 mm 0,0 UV-I 0 W/m -2,5 C 0,5 C 15,8 km/h (3 Bft) 0,00 %
02.12.2014 08:30 0,5 C 80 % 1009,2 hPa 0,0 l/m 0,0 km/h (0 Bft) SO 129 0 min 0,000 mm 0,0 UV-I 1 W/m -2,5 C 0,5 C 15,8 km/h (3 Bft) 0,00 %
02.12.2014 08:45 0,5 C 80 % 1009,6 hPa 0,0 l/m 0,0 km/h (0 Bft) SO 130 0 min 0,000 mm 0,0 UV-I 2 W/m -2,5 C 0,5 C 0,0 km/h (0 Bft) 0,00 %
02.12.2014 09:00 0,5 C 80 % 1009,5 hPa 0,0 l/m 0,0 km/h (0 Bft) SO 131 0 min 0,000 mm 0,0 UV-I 5 W/m -2,5 C 0,5 C 0,0 km/h (0 Bft) 0,00 %
02.12.2014 09:15 0,5 C 80 % 1009,6 hPa 0,0 l/m 0,0 km/h (0 Bft) SO 132 0 min 0,000 mm 0,0 UV-I 7 W/m -2,5 C 0,5 C 0,0 km/h (0 Bft) 0,00 %
02.12.2014 09:30 0,5 C 80 % 1010,0 hPa 0,0 l/m 0,0 km/h (0 Bft) SO 133 0 min 0,000 mm 0,0 UV-I 9 W/m -2,5 C 0,5 C 0,0 km/h (0 Bft) 0,00 %
02.12.2014 09:45 0,5 C 80 % 1010,0 hPa 0,0 l/m 0,0 km/h (0 Bft) SO 134 0 min 0,000 mm 0,0 UV-I 34 W/m -2,5 C 0,5 C 0,0 km/h (0 Bft) 0,00 %
02.12.2014 10:00 0,5 C 80 % 1010,2 hPa 0,0 l/m 0,0 km/h (0 Bft) SO 135 0 min 0,000 mm 0,0 UV-I 33 W/m -2,5 C 0,5 C 0,0 km/h (0 Bft) 0,00 %
02.12.2014 10:15 0,5 C 80 % 1010,2 hPa 0,0 l/m 0,0 km/h (0 Bft) SO 136 0 min 0,000 mm 0,0 UV-I 32 W/m -2,5 C 0,5 C 0,0 km/h (0 Bft) 0,00 %
02.12.2014 10:30 0,5 C 80 % 1010,3 hPa 0,0 l/m 0,0 km/h (0 Bft) SO 137 0 min 0,000 mm 0,0 UV-I 45 W/m -2,5 C 0,5 C 0,0 km/h (0 Bft) 0,00 %
02.12.2014 10:45 0,5 C 80 % 1010,2 hPa 0,0 l/m 0,0 km/h (0 Bft) SO 138 0 min 0,000 mm 0,0 UV-I 44 W/m -2,5 C 0,5 C 0,0 km/h (0 Bft) 0,00 %
02.12.2014 11:00 0,6 C 80 % 1010,3 hPa 0,0 l/m 6,5 km/h (2 Bft) O 81 0 min 0,000 mm 1,0 UV-I 50 W/m -2,4 C 0,5 C 11,9 km/h (2 Bft) 0,00 %
02.12.2014 11:15 0,7 C 79 % 1010,2 hPa 0,0 l/m 5,8 km/h (2 Bft) O-SO 108 0 min 0,000 mm 1,0 UV-I 52 W/m -2,5 C 0,7 C 7,9 km/h (2 Bft) 0,00 %
02.12.2014 11:30 0,7 C 79 % 1010,4 hPa 0,0 l/m 16,9 km/h (3 Bft) O-SO 119 0 min 0,000 mm 1,0 UV-I 59 W/m -2,5 C -7,2 C 19,8 km/h (3 Bft) 0,00 %
02.12.2014 11:45 0,5 C 79 % 1010,3 hPa 0,0 l/m 9,4 km/h (2 Bft) O 88 0 min 0,000 mm 1,0 UV-I 31 W/m -2,7 C -2,4 C 11,9 km/h (2 Bft) 0,00 %
02.12.2014 12:00 0,5 C 79 % 1010,2 hPa 0,0 l/m 4,0 km/h (1 Bft) O 92 0 min 0,000 mm 1,0 UV-I 54 W/m -2,7 C 0,5 C 7,9 km/h (2 Bft) 0,00 %
02.12.2014 12:15 0,6 C 79 % 1010,1 hPa 0,0 l/m 9,4 km/h (2 Bft) O-SO 107 0 min 0,000 mm 1,0 UV-I 49 W/m -2,6 C -2,3 C 11,9 km/h (2 Bft) 0,00 %
02.12.2014 12:30 0,5 C 79 % 1010,2 hPa 0,0 l/m 14,8 km/h (3 Bft) O-SO 103 0 min 0,000 mm 0,0 UV-I 55 W/m -2,7 C -6,3 C 19,8 km/h (3 Bft) 0,00 %
02.12.2014 12:45 0,5 C 79 % 1010,0 hPa 0,0 l/m 4,7 km/h (1 Bft) O 87 0 min 0,000 mm 0,0 UV-I 40 W/m -2,7 C 0,5 C 7,9 km/h (2 Bft) 0,00 %
02.12.2014 13:00 0,6 C 79 % 1010,1 hPa 0,0 l/m 1,8 km/h (1 Bft) O-NO 64 0 min 0,000 mm 1,0 UV-I 54 W/m -2,6 C 0,6 C 7,9 km/h (2 Bft) 0,00 %
02.12.2014 13:15 0,6 C 79 % 1010,0 hPa 0,0 l/m 9,4 km/h (2 Bft) O 79 0 min 0,000 mm 0,0 UV-I 60 W/m -2,6 C -2,3 C 15,8 km/h (3 Bft) 0,00 %
02.12.2014 13:30 0,6 C 79 % 1010,0 hPa 0,0 l/m 4,7 km/h (1 Bft) O-SO 118 0 min 0,000 mm 0,0 UV-I 33 W/m -2,6 C 0,6 C 7,9 km/h (2 Bft) 0,00 %
02.12.2014 13:45 0,6 C 79 % 1009,9 hPa 0,0 l/m 3,2 km/h (1 Bft) O-NO 77 0 min 0,000 mm 0,0 UV-I 40 W/m -2,6 C 0,6 C 4,0 km/h (1 Bft) 0,00 %
02.12.2014 14:00 0,6 C 79 % 1009,8 hPa 0,0 l/m 6,8 km/h (2 Bft) O-SO 112 0 min 0,000 mm 1,0 UV-I 35 W/m -2,6 C 0,2 C 7,9 km/h (2 Bft) 0,00 %
02.12.2014 14:15 0,6 C 79 % 1009,9 hPa 0,0 l/m 10,4 km/h (2 Bft) O-SO 106 0 min 0,000 mm 0,0 UV-I 38 W/m -2,6 C -3,1 C 15,8 km/h (3 Bft) 0,00 %
02.12.2014 14:30 0,6 C 79 % 1009,9 hPa 0,0 l/m 1,8 km/h (1 Bft) S 186 0 min 0,000 mm 0,0 UV-I 22 W/m -2,6 C 0,6 C 4,0 km/h (1 Bft) 0,00 %
02.12.2014 14:45 0,7 C 79 % 1010,2 hPa 0,0 l/m 1,4 km/h (1 Bft) O-SO 123 0 min 0,000 mm 0,0 UV-I 27 W/m -2,5 C 0,7 C 4,0 km/h (1 Bft) 0,00 %
02.12.2014 15:00 0,7 C 78 % 1010,2 hPa 0,0 l/m 4,0 km/h (1 Bft) S 184 0 min 0,000 mm 0,0 UV-I 27 W/m -2,7 C 0,7 C 7,9 km/h (2 Bft) 0,00 %
02.12.2014 15:15 0,7 C 78 % 1010,2 hPa 0,0 l/m 8,3 km/h (2 Bft) O 84 0 min 0,000 mm 0,0 UV-I 16 W/m -2,7 C -1,2 C 11,9 km/h (2 Bft) 0,00 %
02.12.2014 15:30 0,6 C 78 % 1010,4 hPa 0,0 l/m 4,7 km/h (1 Bft) O 85 0 min 0,000 mm 0,0 UV-I 1 W/m -2,8 C 0,6 C 7,9 km/h (2 Bft) 0,00 %
02.12.2014 15:45 0,6 C 79 % 1010,5 hPa 0,0 l/m 9,0 km/h (2 Bft) O 94 0 min 0,000 mm 0,0 UV-I 0 W/m -2,6 C -1,9 C 11,9 km/h (2 Bft) 0,00 %
02.12.2014 16:00 0,5 C 79 % 1010,5 hPa 0,0 l/m 11,5 km/h (2 Bft) O 85 0 min 0,000 mm 0,0 UV-I 0 W/m -2,7 C -4,1 C 15,8 km/h (3 Bft) 0,00 %
02.12.2014 16:15 0,4 C 79 % 1010,8 hPa 0,0 l/m 11,5 km/h (2 Bft) O-SO 111 0 min 0,000 mm 0,0 UV-I 0 W/m -2,8 C -4,2 C 15,8 km/h (3 Bft) 0,00 %
02.12.2014 16:30 0,5 C 79 % 1010,8 hPa 0,0 l/m 11,5 km/h (2 Bft) O 95 0 min 0,000 mm 0,0 UV-I 0 W/m -2,7 C -4,1 C 15,8 km/h (3 Bft) 0,00 %
02.12.2014 16:45 0,5 C 79 % 1010,9 hPa 0,0 l/m 2,2 km/h (1 Bft) O-SO 108 0 min 0,000 mm 0,0 UV-I 0 W/m -2,7 C 0,5 C 4,0 km/h (1 Bft) 0,00 %
02.12.2014 17:00 0,5 C 79 % 1010,9 hPa 0,0 l/m 10,4 km/h (2 Bft) O 92 0 min 0,000 mm 0,0 UV-I 0 W/m -2,7 C -3,2 C 11,9 km/h (2 Bft) 0,00 %
02.12.2014 17:15 0,5 C 78 % 1011,0 hPa 0,0 l/m 6,5 km/h (2 Bft) O 99 0 min 0,000 mm 0,0 UV-I 0 W/m -2,9 C 0,4 C 7,9 km/h (2 Bft) 0,00 %
02.12.2014 17:30 0,6 C 78 % 1011,0 hPa 0,0 l/m 6,5 km/h (2 Bft) SO 127 0 min 0,000 mm 0,0 UV-I 0 W/m -2,8 C 0,5 C 15,8 km/h (3 Bft) 0,00 %
02.12.2014 17:45 0,6 C 78 % 1011,2 hPa 0,0 l/m 1,4 km/h (1 Bft) S-SO 161 0 min 0,000 mm 0,0 UV-I 0 W/m -2,8 C 0,6 C 4,0 km/h (1 Bft) 0,00 %
02.12.2014 18:00 0,6 C 78 % 1011,3 hPa 0,0 l/m 1,4 km/h (1 Bft) O-NO 65 0 min 0,000 mm 0,0 UV-I 0 W/m -2,8 C 0,6 C 4,0 km/h (1 Bft) 0,00 %
02.12.2014 18:15 0,6 C 78 % 1011,5 hPa 0,0 l/m 1,8 km/h (1 Bft) O-NO 76 0 min 0,000 mm 0,0 UV-I 0 W/m -2,8 C 0,6 C 4,0 km/h (1 Bft) 0,00 %
02.12.2014 18:30 0,6 C 77 % 1011,4 hPa 0,0 l/m 1,8 km/h (1 Bft) O 92 0 min 0,000 mm 0,0 UV-I 0 W/m -3,0 C 0,6 C 4,0 km/h (1 Bft) 0,00 %
02.12.2014 18:45 0,6 C 77 % 1011,6 hPa 0,0 l/m 1,8 km/h (1 Bft) O 93 0 min 0,000 mm 0,0 UV-I 0 W/m -3,0 C 0,6 C 4,0 km/h (1 Bft) 0,00 %
02.12.2014 19:00 0,6 C 77 % 1011,6 hPa 0,0 l/m 5,8 km/h (2 Bft) O-SO 117 0 min 0,000 mm 0,0 UV-I 0 W/m -3,0 C 0,6 C 11,9 km/h (2 Bft) 0,00 %
02.12.2014 19:15 0,7 C 77 % 1011,9 hPa 0,0 l/m 1,8 km/h (1 Bft) O-NO 72 0 min 0,000 mm 0,0 UV-I 0 W/m -2,9 C 0,7 C 4,0 km/h (1 Bft) 0,00 %
02.12.2014 19:30 0,7 C 77 % 1012,0 hPa 0,0 l/m 5,8 km/h (2 Bft) O-SO 112 0 min 0,000 mm 0,0 UV-I 0 W/m -2,9 C 0,7 C 7,9 km/h (2 Bft) 0,00 %
02.12.2014 19:45 0,7 C 77 % 1012,0 hPa 0,0 l/m 4,7 km/h (1 Bft) NO 55 0 min 0,000 mm 0,0 UV-I 0 W/m -2,9 C 0,7 C 11,9 km/h (2 Bft) 0,00 %
02.12.2014 20:00 0,7 C 77 % 1012,1 hPa 0,0 l/m 4,7 km/h (1 Bft) O 92 0 min 0,000 mm 0,0 UV-I 0 W/m -2,9 C 0,7 C 7,9 km/h (2 Bft) 0,00 %
02.12.2014 20:15 0,7 C 77 % 1012,3 hPa 0,0 l/m 1,8 km/h (1 Bft) O 84 0 min 0,000 mm 0,0 UV-I 0 W/m -2,9 C 0,7 C 4,0 km/h (1 Bft) 0,00 %
02.12.2014 20:30 0,7 C 77 % 1012,4 hPa 0,0 l/m 11,9 km/h (2 Bft) SO 125 0 min 0,000 mm 0,0 UV-I 0 W/m -2,9 C -4,1 C 15,8 km/h (3 Bft) 0,00 %
02.12.2014 20:45 0,7 C 78 % 1012,5 hPa 0,0 l/m 6,8 km/h (2 Bft) O-SO 105 0 min 0,000 mm 0,0 UV-I 0 W/m -2,7 C 0,3 C 11,9 km/h (2 Bft) 0,00 %
02.12.2014 21:00 0,7 C 78 % 1012,6 hPa 0,0 l/m 3,2 km/h (1 Bft) O-NO 75 0 min 0,000 mm 0,0 UV-I 0 W/m -2,7 C 0,7 C 7,9 km/h (2 Bft) 0,00 %
02.12.2014 21:15 0,7 C 79 % 1012,6 hPa 0,0 l/m 4,0 km/h (1 Bft) S-SO 153 0 min 0,000 mm 0,0 UV-I 0 W/m -2,5 C 0,7 C 7,9 km/h (2 Bft) 0,00 %
02.12.2014 21:30 0,7 C 78 % 1012,7 hPa 0,0 l/m 4,0 km/h (1 Bft) SO 128 0 min 0,000 mm 0,0 UV-I 0 W/m -2,7 C 0,7 C 7,9 km/h (2 Bft) 0,00 %
02.12.2014 21:45 0,7 C 78 % 1012,7 hPa 0,0 l/m 9,0 km/h (2 Bft) O 94 0 min 0,000 mm 0,0 UV-I 0 W/m -2,7 C -1,8 C 11,9 km/h (2 Bft) 0,00 %
02.12.2014 22:00 0,7 C 78 % 1012,7 hPa 0,0 l/m 2,2 km/h (1 Bft) S 172 0 min 0,000 mm 0,0 UV-I 0 W/m -2,7 C 0,7 C 4,0 km/h (1 Bft) 0,00 %
02.12.2014 22:15 0,7 C 79 % 1012,9 hPa 0,0 l/m 5,8 km/h (2 Bft) O 89 0 min 0,000 mm 0,0 UV-I 0 W/m -2,5 C 0,7 C 7,9 km/h (2 Bft) 0,00 %
02.12.2014 22:30 0,7 C 79 % 1012,9 hPa 0,0 l/m 0,0 km/h (0 Bft) N 350 0 min 0,000 mm 0,0 UV-I 0 W/m -2,5 C 0,7 C 0,0 km/h (0 Bft) 0,00 %
02.12.2014 22:45 0,8 C 78 % 1012,9 hPa 0,0 l/m 0,7 km/h (0 Bft) S-SW 197 0 min 0,000 mm 0,0 UV-I 0 W/m -2,6 C 0,8 C 4,0 km/h (1 Bft) 0,00 %
02.12.2014 23:00 0,8 C 78 % 1013,0 hPa 0,0 l/m 2,9 km/h (1 Bft) SO 139 0 min 0,000 mm 0,0 UV-I 0 W/m -2,6 C 0,8 C 4,0 km/h (1 Bft) 0,00 %
02.12.2014 23:15 0,8 C 78 % 1013,0 hPa 0,0 l/m 4,0 km/h (1 Bft) O 93 0 min 0,000 mm 0,0 UV-I 0 W/m -2,6 C 0,8 C 7,9 km/h (2 Bft) 0,00 %
02.12.2014 23:30 0,9 C 78 % 1013,1 hPa 0,0 l/m 11,5 km/h (2 Bft) O 92 0 min 0,000 mm 0,0 UV-I 0 W/m -2,5 C -3,6 C 15,8 km/h (3 Bft) 0,00 %
02.12.2014 23:45 0,9 C 78 % 1013,1 hPa 0,0 l/m 14,8 km/h (3 Bft) O 100 0 min 0,000 mm 0,0 UV-I 0 W/m -2,5 C -5,8 C 19,8 km/h (3 Bft) 0,00 %
_ Min-Zeit 16:15 00:00 00:15 - 03:30 - - - - - - 18:30 06:30 03:30 00:00
Minimum _ 0,4 C 77 % 1007,3 hPa - 0,0 km/h (0 Bft) - - - - - - -3,0 C -7,9 C 0,0 km/h (0 Bft) 0,00 %
_ Max-Zeit 00:00 06:15 23:30 00:00 06:30 - - 00:00 00:00 11:00 13:15 00:45 00:30 06:30 00:00
Maximum _ 1,2 C 80 % 1013,1 hPa 0,0 l/m 18,0 km/h
O (3 Bft)
- - 0 min 0,000 mm 1,0 UV-I 60 W/m -2,2 C 1,0 C 24,1 km/h
O (4 Bft)
0,00 %
Durchschnitt _ 0,7 C 79 % 1010,0 hPa #0,0 l/m 5,6 km/h (1 Bft) O - #0 min. #0,000 mm 1,0 UV-I 33 W/m -2,6 C -0,7 C 9,1 km/h (2 Bft) 0,00 %